KC5TIL Weather Reports


Display with metric or nautical units.
time (UTC)temp
F
wind
direction
speed
MPH
gust
MPH
rain 1hr
in
rain 24hr
in
rain mn
in
humidity
%
barometer
mb
20260506221533 62 30 2.0 6.0 0.00 0.06 0.06 73 1015.1
20260506221031 63 341 1.0 5.0 0.00 0.06 0.06 72 1015.0
20260506220526 63 334 5.0 6.0 0.00 0.06 0.06 72 1015.3
20260506220022 63 352 2.0 3.0 0.00 0.06 0.06 73 1015.0
20260506215519 62 97 1.0 6.0 0.00 0.06 0.06 73 1015.2
20260506215015 63 344 4.0 8.0 0.00 0.06 0.06 73 1015.2
20260506214512 63 256 2.0 6.0 0.00 0.06 0.06 72 1015.2
20260506214009 63 72 3.0 6.0 0.00 0.06 0.06 72 1015.1
20260506213507 62 356 6.0 6.0 0.00 0.06 0.06 73 1015.4
20260506213004 62 281 1.0 6.0 0.00 0.06 0.06 73 1015.4
20260506212500 62 348 5.0 6.0 0.00 0.06 0.06 72 1015.4
20260506211955 62 49 1.0 5.0 0.00 0.06 0.06 74 1015.2
20260506211451 62 55 3.0 5.0 0.00 0.06 0.06 72 1015.0
20260506210949 62 67 0.0 3.0 0.00 0.06 0.06 73 1015.2
20260506210445 63 69 1.0 3.0 0.00 0.06 0.06 72 1015.4
20260506205942 62 42 2.0 6.0 0.00 0.06 0.06 73 1015.4
20260506205438 62 59 1.0 5.0 0.00 0.06 0.06 73 1015.4
20260506204934 61 92 2.0 6.0 0.00 0.06 0.06 74 1015.5
20260506204433 61 55 3.0 5.0 0.00 0.06 0.06 74 1015.6
20260506203930 61 106 0.0 2.0 0.00 0.06 0.06 75 1015.5
20260506203427 62 346 4.0 6.0 0.00 0.06 0.06 73 1015.6
20260506202924 62 47 3.0 7.0 0.00 0.06 0.06 73 1015.7
20260506202421 62 291 4.0 7.0 0.00 0.06 0.06 72 1015.4
20260506201917 63 328 4.0 6.0 0.00 0.06 0.06 72 1015.9
20260506201415 61 39 3.0 6.0 0.00 0.06 0.06 73 1016.1
20260506200911 62 289 4.0 6.0 0.00 0.06 0.06 73 1015.8
20260506200407 61 23 3.0 6.0 0.00 0.06 0.06 75 1016.2
20260506195904 61 268 3.0 5.0 0.00 0.06 0.06 75 1016.1
20260506195401 60 68 4.0 7.0 0.00 0.06 0.06 75 1016.2
20260506194858 60 312 3.0 8.0 0.00 0.06 0.06 76 1016.5
20260506194355 60 305 3.0 6.0 0.00 0.06 0.06 76 1016.6
20260506193852 60 286 3.0 6.0 0.00 0.06 0.06 77 1016.3
20260506193349 59 312 6.0 9.0 0.00 0.06 0.06 78 1016.4
20260506192845 59 354 5.0 8.0 0.00 0.06 0.06 77 1016.6
20260506192342 59 61 3.0 6.0 0.00 0.06 0.06 78 1016.5
20260506191839 59 342 3.0 6.0 0.00 0.06 0.06 79 1016.6
20260506191335 58 16 2.0 3.0 0.00 0.06 0.06 80 1016.6
20260506190832 58 320 1.0 3.0 0.00 0.06 0.06 80 1016.8
20260506190328 57 280 3.0 5.0 0.00 0.06 0.06 81 1017.1
20260506185826 57 320 2.0 3.0 0.00 0.06 0.06 82 1017.0
20260506185323 57 10 4.0 5.0 0.00 0.06 0.06 81 1017.1
20260506184820 57 9 1.0 5.0 0.00 0.06 0.06 82 1017.1
20260506184317 57 7 3.0 5.0 0.00 0.06 0.06 81 1017.1
20260506183814 57 14 2.0 5.0 0.00 0.06 0.06 81 1017.0
20260506183309 57 0 3.0 5.0 0.00 0.06 0.06 81 1017.0
20260506182806 58 61 2.0 2.0 0.00 0.06 0.06 81 1017.0
20260506182306 57 305 3.0 5.0 0.00 0.06 0.06 81 1016.7
20260506181801 57 20 2.0 3.0 0.00 0.06 0.06 82 1016.3
20260506181259 57 321 3.0 6.0 0.00 0.06 0.06 82 1016.2
20260506180756 57 69 2.0 6.0 0.00 0.06 0.06 83 1015.7
20260506180252 57 54 4.0 9.0 0.00 0.06 0.06 82 1015.3
20260506175748 57 34 5.0 17.0 0.00 0.06 0.06 83 1015.4
20260506175245 57 51 4.0 8.0 0.00 0.06 0.06 83 1015.7
20260506174743 57 275 3.0 8.0 0.00 0.06 0.06 84 1015.8
20260506174239 56 46 5.0 7.0 0.00 0.06 0.06 85 1015.7
20260506173737 56 86 2.0 5.0 0.00 0.06 0.06 86 1016.0
20260506173234 56 72 3.0 9.0 0.00 0.06 0.06 86 1016.2
20260506172731 56 283 3.0 10.0 0.00 0.06 0.06 86 1016.5
20260506172227 56 45 2.0 3.0 0.00 0.06 0.06 86 1016.5
20260506171725 55 338 3.0 7.0 0.00 0.06 0.06 87 1016.4
20260506171222 55 41 5.0 8.0 0.00 0.06 0.06 87 1016.2
20260506170720 55 49 3.0 7.0 0.00 0.06 0.06 88 1016.2
20260506170216 55 19 4.0 6.0 0.00 0.06 0.06 88 1016.4
20260506165715 55 115 0.0 6.0 0.00 0.06 0.06 88 1016.4
20260506165211 55 305 3.0 7.0 0.00 0.06 0.06 88 1016.3
20260506164708 55 18 5.0 7.0 0.00 0.06 0.06 87 1016.6
20260506164205 55 82 1.0 10.0 0.00 0.06 0.06 88 1016.5
20260506163702 55 37 5.0 7.0 0.00 0.06 0.06 87 1016.2
20260506163157 55 184 1.0 7.0 0.00 0.06 0.06 88 1016.2
20260506162653 55 56 1.0 5.0 0.00 0.06 0.06 88 1016.6
20260506162151 55 102 2.0 6.0 0.00 0.06 0.06 88 1016.3
20260506161648 55 59 5.0 8.0 0.00 0.06 0.06 87 1016.3
20260506161144 55 74 2.0 8.0 0.00 0.06 0.06 87 1016.4
20260506160642 55 318 4.0 6.0 0.00 0.06 0.06 87 1016.4
20260506160139 55 53 4.0 6.0 0.00 0.06 0.06 88 1016.4
20260506155638 55 22 3.0 5.0 0.00 0.06 0.06 87 1016.5
20260506155134 55 0 3.0 5.0 0.00 0.06 0.06 88 1016.6
20260506153236 53 236 1.0 6.0 0.00 0.06 0.06 92 1015.8
20260506152733 53 43 3.0 8.0 0.00 0.06 0.06 92 1015.4
20260506152231 53 77 2.0 9.0 0.00 0.06 0.06 92 1015.6
20260506151730 53 296 2.0 8.0 0.07 0.06 0.06 92 1016.4
20260506151225 53 89 4.0 6.0 0.12 0.06 0.06 91 1017.1
20260506150722 53 310 1.0 3.0 0.21 0.05 0.05 91 1018.4
20260506150219 53 98 4.0 9.0 0.26 0.04 0.04 90 1015.8
20260506145717 54 332 3.0 5.0 0.05 0.01 0.01 87 1017.9
20260506145213 54 219 4.0 6.0 0.00 0.00 0.00 85 1018.1
20260506144710 54 334 1.0 3.0 0.00 0.00 0.00 84 1018.3
20260506144207 54 62 1.0 5.0 0.00 0.00 0.00 84 1017.8
20260506143705 54 287 3.0 5.0 0.00 0.00 0.00 82 1017.9
20260506143202 54 62 1.0 3.0 0.00 0.00 0.00 82 1018.0
20260506142701 54 42 2.0 6.0 0.00 0.00 0.00 82 1016.6
20260506142158 54 62 4.0 7.0 0.00 0.00 0.00 82 1015.7
20260506141656 54 18 4.0 10.0 0.00 0.00 0.00 82 1016.2
20260506141154 54 356 7.0 10.0 0.00 0.00 0.00 82 1016.1
20260506140651 54 335 3.0 10.0 0.00 0.00 0.00 82 1016.5
20260506140148 54 301 3.0 8.0 0.00 0.00 0.00 82 1016.7
20260506135645 54 330 3.0 9.0 0.00 0.00 0.00 82 1016.2
20260506135141 54 355 5.0 10.0 0.00 0.00 0.00 82 1016.4
20260506134638 54 322 4.0 8.0 0.00 0.00 0.00 82 1016.2
20260506134133 54 13 4.0 11.0 0.00 0.00 0.00 82 1015.8
20260506133631 54 3 4.0 13.0 0.00 0.00 0.00 82 1015.8
20260506133128 54 28 5.0 13.0 0.00 0.00 0.00 81 1015.8
20260506132626 54 0 3.0 9.0 0.00 0.00 0.00 81 1015.6
20260506132122 55 86 1.0 9.0 0.00 0.00 0.00 80 1015.4
20260506131620 55 274 3.0 8.0 0.00 0.00 0.00 79 1015.6
20260506131116 55 5 1.0 7.0 0.00 0.00 0.00 79 1015.3
20260506130613 55 306 7.0 9.0 0.00 0.00 0.00 78 1015.3
20260506130110 55 213 3.0 10.0 0.00 0.00 0.00 78 1015.0
20260506125609 55 122 0.0 7.0 0.00 0.00 0.00 78 1014.9
20260506125106 55 81 9.0 11.0 0.00 0.00 0.00 78 1015.2
20260506124603 55 20 3.0 7.0 0.00 0.00 0.00 77 1014.9
20260506124101 55 286 8.0 9.0 0.00 0.00 0.00 77 1015.0
20260506123558 55 121 4.0 10.0 0.00 0.00 0.00 76 1014.8
20260506123057 56 2 6.0 11.0 0.00 0.00 0.00 76 1014.9
20260506122553 56 317 6.0 13.0 0.00 0.00 0.00 75 1014.7
20260506122052 56 306 6.0 9.0 0.00 0.00 0.00 75 1014.6
20260506121549 56 11 3.0 7.0 0.00 0.00 0.00 76 1014.4
20260506121044 56 301 1.0 7.0 0.00 0.00 0.00 76 1014.4
20260506120543 56 56 2.0 7.0 0.00 0.00 0.00 76 1014.2
20260506120040 56 11 6.0 9.0 0.00 0.00 0.00 76 1014.6
20260506115538 57 330 5.0 8.0 0.00 0.00 0.00 76 1014.3
20260506115036 57 54 2.0 7.0 0.00 0.00 0.00 76 1014.5
20260506114533 57 304 5.0 7.0 0.00 0.00 0.00 76 1014.4
20260506114032 57 10 1.0 8.0 0.00 0.00 0.00 75 1014.2
20260506113529 57 302 6.0 10.0 0.00 0.00 0.00 75 1014.1
20260506113026 57 355 6.0 11.0 0.00 0.00 0.00 75 1014.1
20260506112522 57 47 6.0 8.0 0.00 0.00 0.00 75 1013.9
20260506112020 57 72 2.0 7.0 0.00 0.00 0.00 75 1013.6
20260506111518 58 36 4.0 6.0 0.00 0.00 0.00 75 1013.6
20260506111015 58 253 4.0 7.0 0.00 0.00 0.00 75 1013.2
20260506110513 58 342 3.0 6.0 0.00 0.00 0.00 74 1013.5
20260506110010 58 129 1.0 10.0 0.00 0.00 0.00 75 1013.7
20260506105505 58 49 5.0 8.0 0.00 0.00 0.00 75 1013.4
20260506105003 58 340 3.0 7.0 0.00 0.00 0.00 75 1013.4
20260506104501 58 312 4.0 7.0 0.00 0.00 0.00 75 1013.2
20260506103959 58 317 5.0 8.0 0.00 0.00 0.00 75 1013.3
20260506103455 58 295 5.0 10.0 0.00 0.00 0.00 75 1013.2
20260506102952 59 347 4.0 7.0 0.00 0.00 0.00 75 1013.0
20260506102450 59 319 7.0 8.0 0.00 0.00 0.00 75 1012.7
20260506101948 59 309 6.0 9.0 0.00 0.00 0.00 76 1012.7
20260506101444 59 330 3.0 6.0 0.00 0.00 0.00 76 1012.4
20260506100941 59 10 5.0 7.0 0.00 0.00 0.00 75 1012.3
20260506100439 59 9 3.0 7.0 0.00 0.00 0.00 75 1012.3
20260506095937 59 304 3.0 5.0 0.00 0.00 0.00 75 1012.3
20260506095435 59 313 3.0 7.0 0.00 0.00 0.00 75 1012.3
20260506094931 60 9 6.0 9.0 0.00 0.00 0.00 75 1012.0
20260506094430 60 326 3.0 5.0 0.00 0.00 0.00 75 1012.3
20260506093927 60 336 6.0 8.0 0.00 0.00 0.00 75 1012.0
20260506093425 60 297 3.0 7.0 0.00 0.00 0.00 75 1012.0
20260506092923 60 295 3.0 6.0 0.00 0.00 0.00 75 1012.1
20260506092421 60 313 2.0 7.0 0.00 0.00 0.00 75 1012.0
20260506091917 60 355 3.0 8.0 0.00 0.00 0.00 75 1011.9
20260506091415 60 346 4.0 8.0 0.00 0.00 0.00 75 1012.0
20260506090912 61 247 3.0 5.0 0.00 0.00 0.00 75 1012.0
20260506090409 60 358 2.0 5.0 0.00 0.00 0.00 76 1011.8
20260506085906 61 1 2.0 8.0 0.00 0.00 0.00 76 1011.9
20260506085403 61 306 5.0 7.0 0.00 0.00 0.00 76 1011.6
20260506084859 61 291 4.0 7.0 0.00 0.00 0.00 76 1011.9
20260506084356 61 0 4.0 6.0 0.00 0.00 0.00 76 1011.7
20260506083852 61 32 1.0 5.0 0.00 0.00 0.00 76 1011.7
20260506083350 61 79 3.0 3.0 0.00 0.00 0.00 77 1011.6
20260506082847 61 336 2.0 5.0 0.00 0.00 0.00 77 1011.5
20260506082344 62 285 2.0 6.0 0.00 0.00 0.00 77 1011.5
20260506081839 62 90 1.0 5.0 0.00 0.00 0.00 77 1011.6
20260506081338 62 202 1.0 3.0 0.00 0.00 0.00 77 1011.5
20260506080835 62 101 1.0 5.0 0.00 0.00 0.00 77 1011.3
20260506080331 62 269 2.0 5.0 0.00 0.00 0.00 77 1011.3
20260506073316 62 99 1.0 6.0 0.00 0.00 0.00 78 1011.2
20260506072812 62 75 3.0 3.0 0.00 0.00 0.00 78 1011.1
20260506072310 62 70 2.0 5.0 0.00 0.00 0.00 78 1011.3
20260506071808 62 44 2.0 5.0 0.00 0.00 0.00 78 1011.3
20260506071306 62 26 1.0 5.0 0.00 0.00 0.00 78 1011.0
20260506070802 62 28 4.0 7.0 0.00 0.00 0.00 77 1011.2
20260506070259 62 101 3.0 5.0 0.00 0.00 0.00 77 1011.3
20260506062236 63 203 2.0 5.0 0.00 0.00 0.00 77 1011.0
20260506061726 63 345 5.0 7.0 0.00 0.00 0.00 77 1011.3
20260506061224 63 264 6.0 8.0 0.00 0.00 0.00 77 1011.2
20260506060723 63 69 3.0 5.0 0.00 0.00 0.00 77 1011.1
20260506060219 63 258 3.0 9.0 0.00 0.00 0.00 77 1011.0
20260506051145 65 18 6.0 9.0 0.00 0.00 0.00 76 1011.4
20260506050644 65 21 3.0 8.0 0.00 0.00 0.00 76 1011.3
20260506050140 65 306 6.0 8.0 0.00 0.00 0.00 76 1011.2
20260506045133 66 115 0.0 8.0 0.00 0.00 0.00 76 1010.8
20260506044631 66 257 3.0 7.0 0.00 0.00 0.00 75 1011.0
20260506044128 66 67 0.0 6.0 0.00 0.00 0.00 75 1010.9
20260506043625 66 348 5.0 8.0 0.00 0.00 0.00 75 1011.1
20260506043123 66 346 3.0 7.0 0.00 0.00 0.00 75 1011.2
20260506042622 67 28 7.0 9.0 0.00 0.00 0.00 74 1011.2
20260506042120 67 218 4.0 10.0 0.00 0.00 0.00 74 1011.1
20260506041618 68 0 4.0 9.0 0.00 0.00 0.00 73 1011.1
20260506041114 68 318 4.0 6.0 0.00 0.00 0.00 74 1010.8
20260506040612 68 291 6.0 11.0 0.00 0.00 0.00 74 1010.7
20260506040109 69 294 6.0 7.0 0.00 0.00 0.00 73 1010.9
20260506035606 69 353 7.0 9.0 0.00 0.00 0.00 73 1010.6
20260506035102 69 285 4.0 8.0 0.00 0.00 0.00 73 1010.2
20260506034600 69 244 1.0 5.0 0.00 0.00 0.00 73 1010.1
20260506034056 69 18 3.0 7.0 0.00 0.00 0.00 72 1010.0
20260506033554 70 319 5.0 8.0 0.00 0.00 0.00 71 1010.1
20260506033050 70 274 2.0 6.0 0.00 0.00 0.00 71 1010.0
20260506032548 70 356 4.0 13.0 0.00 0.00 0.00 70 1009.8
20260506032045 70 353 3.0 3.0 0.00 0.00 0.00 70 1009.5
20260506031542 70 308 3.0 10.0 0.00 0.00 0.00 70 1009.5
20260506031039 70 87 2.0 9.0 0.00 0.00 0.00 69 1009.5
20260506030537 70 345 2.0 7.0 0.00 0.00 0.00 70 1009.5
20260506030034 70 27 5.0 8.0 0.00 0.00 0.00 70 1009.2
20260506025531 70 345 3.0 9.0 0.00 0.00 0.00 70 1009.4
20260506025027 71 10 2.0 7.0 0.00 0.00 0.00 70 1009.4
20260506024524 71 343 3.0 8.0 0.00 0.00 0.00 70 1009.3
20260506024020 71 316 5.0 10.0 0.00 0.00 0.00 70 1009.1
20260506023516 72 349 7.0 10.0 0.00 0.00 0.00 69 1008.9
20260506023015 72 293 8.0 11.0 0.00 0.00 0.00 69 1008.8
20260506022512 72 341 7.0 11.0 0.00 0.00 0.00 68 1008.8
20260506022009 73 58 2.0 8.0 0.00 0.00 0.00 68 1008.4
20260506021506 73 264 5.0 11.0 0.00 0.00 0.00 68 1008.3
20260506021004 73 348 3.0 5.0 0.00 0.00 0.00 68 1008.1
20260506020501 73 334 4.0 10.0 0.00 0.00 0.00 68 1007.9
20260506015957 74 299 6.0 10.0 0.00 0.00 0.00 67 1007.9
20260506015455 74 9 3.0 6.0 0.00 0.00 0.00 67 1007.4
20260506014952 74 33 2.0 5.0 0.00 0.00 0.00 67 1007.4
20260506014449 75 43 3.0 8.0 0.00 0.00 0.00 67 1007.4
20260506013945 75 354 4.0 7.0 0.00 0.00 0.00 67 1007.0
20260506013444 75 307 2.0 8.0 0.00 0.00 0.00 67 1007.0
20260506012939 76 351 4.0 8.0 0.00 0.00 0.00 67 1007.1
20260506012436 76 332 2.0 7.0 0.00 0.00 0.00 66 1006.8
20260506011933 77 312 4.0 8.0 0.00 0.00 0.00 66 1006.6
20260506011431 77 54 3.0 7.0 0.00 0.00 0.00 65 1006.6
20260506010927 78 350 4.0 9.0 0.00 0.00 0.00 64 1006.7
20260506010426 78 355 2.0 5.0 0.00 0.00 0.00 63 1006.7
20260506005922 78 62 3.0 6.0 0.00 0.00 0.00 62 1006.5
20260506005420 79 23 4.0 5.0 0.00 0.00 0.00 62 1006.3
20260506004915 79 336 5.0 9.0 0.00 0.00 0.00 62 1006.3
20260506004413 79 2 1.0 5.0 0.00 0.00 0.00 62 1006.2
20260506003909 79 83 1.0 3.0 0.00 0.00 0.00 62 1006.1
20260506003405 79 313 2.0 7.0 0.00 0.00 0.00 61 1005.9
20260506002902 80 335 5.0 6.0 0.00 0.00 0.00 61 1006.0
20260506002358 80 9 3.0 7.0 0.00 0.00 0.00 61 1006.1
20260506001854 80 322 3.0 7.0 0.00 0.00 0.00 60 1006.0
20260506001351 81 25 4.0 10.0 0.00 0.00 0.00 59 1005.9
20260506000848 81 274 3.0 6.0 0.00 0.00 0.00 59 1006.0
20260506000346 82 311 2.0 7.0 0.00 0.00 0.00 58 1005.9
20260505235842 82 252 3.0 3.0 0.00 0.00 0.00 58 1005.9
20260505235340 82 252 3.0 6.0 0.00 0.00 0.00 57 1005.9
20260505234836 82 357 3.0 6.0 0.00 0.00 0.00 57 1005.6
20260505234335 83 24 7.0 9.0 0.00 0.00 0.00 57 1005.6
20260505233831 83 11 3.0 9.0 0.00 0.00 0.00 57 1005.5
20260505233329 84 7 3.0 9.0 0.00 0.00 0.00 57 1005.3
20260505232826 85 295 6.0 11.0 0.00 0.00 0.00 56 1005.4
20260505232324 87 13 3.0 7.0 0.00 0.00 0.00 52 1005.2
20260505231820 87 277 5.0 6.0 0.00 0.00 0.00 50 1005.3
20260505231318 87 273 3.0 5.0 0.00 0.00 0.00 49 1005.0
20260505230816 88 123 1.0 2.0 0.00 0.00 0.00 50 1005.0
20260505230313 88 273 3.0 6.0 0.00 0.00 0.00 49 1004.8
20260505225809 88 353 5.0 7.0 0.00 0.00 0.00 48 1004.8
20260505225307 88 264 2.0 6.0 0.00 0.00 0.00 47 1004.7
20260505224802 89 18 3.0 8.0 0.00 0.00 0.00 47 1004.6
20260505224300 92 301 4.0 7.0 0.00 0.00 0.00 46 1004.3
20260505223757 93 126 0.0 3.0 0.00 0.00 0.00 48 1004.4
20260505223254 94 126 0.0 1.0 0.00 0.00 0.00 45 1004.4
20260505222749 94 145 0.0 3.0 0.00 0.00 0.00 43 1004.5
20260505222246 95 168 1.0 2.0 0.00 0.00 0.00 43 1004.3